• In Netherlands
  • List of Countries
  • For 7 days
  • Water Temperature
  • Satellite Maps
  • Weather Map
  • Weather Widgets
  • user-avatar
    Login

    Hourly Weather Parakou

    Today, 27 April, Thursday

    Time Temperature Precipitation Wind Pressure Humidity
    00:00 +28°C° 0.2 mm 3 mps 727 mmHg 79%
    01:00 +27°C° 0 mm 3 mps 727 mmHg 80%
    02:00 +27°C° 0 mm 3 mps 727 mmHg 81%
    03:00 +27°C° 0 mm 3 mps 727 mmHg 82%
    04:00 +26°C° 0 mm 3 mps 727 mmHg 83%
    05:00 +26°C° 0 mm 3 mps 727 mmHg 83%
    06:00 +26°C° 0 mm 2 mps 727 mmHg 84%
    07:00 +28°C° 0 mm 3 mps 728 mmHg 75%
    08:00 +30°C° 0 mm 3 mps 728 mmHg 67%
    09:00 +31°C° 0 mm 3 mps 729 mmHg 58%
    10:00 +34°C° 0 mm 3 mps 728 mmHg 51%
    11:00 +36°C° 0 mm 3 mps 728 mmHg 45%
    12:00 +38°C° 0 mm 3 mps 728 mmHg 38%
    13:00 +39°C° 0 mm 2 mps 727 mmHg 36%
    14:00 +39°C° 0 mm 2 mps 726 mmHg 34%
    15:00 +40°C° 0 mm 1 mps 725 mmHg 32%
    16:00 +37°C° 0 mm 1 mps 725 mmHg 35%
    17:00 +36°C° 0 mm 1 mps 725 mmHg 39%
    18:00 +34°C° 0 mm 1 mps 725 mmHg 42%
    19:00 +34°C° 0 mm 2 mps 726 mmHg 45%
    20:00 +32°C° 0 mm 2 mps 726 mmHg 48%
    21:00 +32°C° 0 mm 2 mps 727 mmHg 51%
    22:00 +31°C° 0 mm 2 mps 727 mmHg 55%
    23:00 +30°C° 0 mm 2 mps 727 mmHg 59%

    Tomorrow, 28 April, Friday

    Time Temperature Precipitation Wind Pressure Humidity
    00:00 +30°C° 0 mm 2 mps 727 mmHg 63%
    01:00 +29°C° 0 mm 3 mps 727 mmHg 67%
    02:00 +28°C° 0 mm 3 mps 727 mmHg 70%
    03:00 +28°C° 0 mm 3 mps 726 mmHg 73%
    04:00 +27°C° 0 mm 3 mps 726 mmHg 75%
    05:00 +27°C° 0 mm 3 mps 727 mmHg 77%
    06:00 +27°C° 0 mm 2 mps 727 mmHg 79%
    07:00 +28°C° 0 mm 3 mps 728 mmHg 73%
    08:00 +30°C° 0 mm 3 mps 728 mmHg 66%
    09:00 +33°C° 0 mm 3 mps 729 mmHg 59%
    10:00 +35°C° 0 mm 3 mps 728 mmHg 52%
    11:00 +37°C° 0 mm 3 mps 728 mmHg 45%
    12:00 +39°C° 0 mm 3 mps 727 mmHg 38%
    13:00 +40°C° 0 mm 2 mps 727 mmHg 36%
    14:00 +40°C° 0 mm 2 mps 726 mmHg 34%
    15:00 +41°C° 0 mm 1 mps 725 mmHg 31%
    16:00 +39°C° 0 mm 1 mps 725 mmHg 35%
    17:00 +37°C° 0 mm 2 mps 725 mmHg 39%
    18:00 +36°C° 0 mm 2 mps 725 mmHg 44%
    19:00 +34°C° 0.4 mm 2 mps 726 mmHg 52%
    20:00 +31°C° 0.4 mm 3 mps 726 mmHg 60%
    21:00 +30°C° 0.4 mm 3 mps 727 mmHg 68%
    22:00 +29°C° 0.1 mm 3 mps 727 mmHg 71%
    23:00 +29°C° 0.1 mm 3 mps 727 mmHg 73%

    Day after tomorrow, 29 April, Saturday

    Time Temperature Precipitation Wind Pressure Humidity
    00:00 +28°C° 0.1 mm 3 mps 727 mmHg 76%
    01:00 +28°C° 1.8 mm 4 mps 727 mmHg 79%
    02:00 +27°C° 1.8 mm 4 mps 727 mmHg 82%
    03:00 +27°C° 1.8 mm 4 mps 726 mmHg 86%
    04:00 +27°C° 0 mm 3 mps 726 mmHg 86%
    05:00 +26°C° 0 mm 3 mps 726 mmHg 86%
    06:00 +26°C° 0 mm 3 mps 726 mmHg 87%
    07:00 +28°C° 0 mm 3 mps 727 mmHg 80%
    08:00 +29°C° 0 mm 3 mps 727 mmHg 73%
    09:00 +31°C° 0 mm 3 mps 728 mmHg 65%
    10:00 +34°C° 0 mm 3 mps 728 mmHg 57%
    11:00 +36°C° 0 mm 3 mps 727 mmHg 49%
    12:00 +38°C° 0 mm 3 mps 727 mmHg 41%
    13:00 +39°C° 0 mm 2 mps 726 mmHg 38%
    14:00 +40°C° 0 mm 2 mps 725 mmHg 35%
    15:00 +40°C° 0 mm 1 mps 724 mmHg 32%
    16:00 +39°C° 0.1 mm 2 mps 725 mmHg 37%
    17:00 +37°C° 0.1 mm 2 mps 725 mmHg 41%
    18:00 +35°C° 0.1 mm 2 mps 725 mmHg 45%
    19:00 +34°C° 0.1 mm 3 mps 726 mmHg 52%
    20:00 +33°C° 0.1 mm 3 mps 726 mmHg 59%
    21:00 +30°C° 0.1 mm 4 mps 726 mmHg 66%
    22:00 +30°C° 0 mm 4 mps 727 mmHg 68%
    23:00 +29°C° 0 mm 4 mps 727 mmHg 71%

    30 April, Sunday

    Time Temperature Precipitation Wind Pressure Humidity
    00:00 +29°C° 0 mm 4 mps 727 mmHg 73%
    01:00 +28°C° 0.4 mm 4 mps 727 mmHg 76%
    02:00 +27°C° 0.4 mm 3 mps 726 mmHg 79%
    03:00 +27°C° 0.4 mm 3 mps 726 mmHg 82%
    04:00 +26°C° 3.6 mm 4 mps 726 mmHg 85%
    05:00 +26°C° 3.6 mm 4 mps 727 mmHg 88%
    06:00 +26°C° 3.6 mm 4 mps 727 mmHg 90%
    07:00 +27°C° 0.1 mm 4 mps 727 mmHg 85%
    08:00 +28°C° 0.1 mm 3 mps 728 mmHg 79%
    09:00 +29°C° 0.1 mm 3 mps 728 mmHg 73%
    10:00 +33°C° 0 mm 3 mps 727 mmHg 64%
    11:00 +35°C° 0 mm 2 mps 727 mmHg 54%
    12:00 +37°C° 0 mm 2 mps 726 mmHg 45%
    13:00 +37°C° 0 mm 2 mps 726 mmHg 42%
    14:00 +38°C° 0 mm 2 mps 725 mmHg 40%
    15:00 +39°C° 0 mm 2 mps 724 mmHg 37%
    16:00 +36°C° 0.1 mm 1 mps 724 mmHg 43%
    17:00 +34°C° 0.1 mm 1 mps 725 mmHg 49%
    18:00 +33°C° 0.1 mm 1 mps 725 mmHg 55%
    19:00 +32°C° 0.3 mm 2 mps 725 mmHg 60%
    20:00 +31°C° 0.3 mm 3 mps 726 mmHg 64%
    21:00 +30°C° 0.3 mm 4 mps 727 mmHg 69%
    22:00 +29°C° 0.4 mm 4 mps 727 mmHg 74%
    23:00 +28°C° 0.4 mm 4 mps 727 mmHg 79%

    1 May, Monday

    Time Temperature Precipitation Wind Pressure Humidity
    00:00 +27°C° 0.4 mm 3 mps 727 mmHg 84%
    01:00 +27°C° 0 mm 3 mps 726 mmHg 86%
    02:00 +27°C° 0 mm 3 mps 726 mmHg 87%
    03:00 +26°C° 0 mm 3 mps 726 mmHg 89%
    04:00 +26°C° 0 mm 3 mps 726 mmHg 88%
    05:00 +26°C° 0 mm 3 mps 726 mmHg 88%
    06:00 +26°C° 0 mm 3 mps 727 mmHg 88%
    07:00 +28°C° 0 mm 3 mps 727 mmHg 81%
    08:00 +29°C° 0 mm 3 mps 727 mmHg 74%
    09:00 +30°C° 0 mm 3 mps 728 mmHg 68%
    10:00 +33°C° 0 mm 3 mps 727 mmHg 60%
    11:00 +35°C° 0 mm 3 mps 727 mmHg 53%
    12:00 +37°C° 0 mm 3 mps 726 mmHg 46%
    13:00 +38°C° 0 mm 3 mps 725 mmHg 43%
    14:00 +38°C° 0 mm 3 mps 725 mmHg 39%
    15:00 +39°C° 0 mm 2 mps 724 mmHg 36%
    16:00 +37°C° 0.3 mm 2 mps 724 mmHg 43%
    17:00 +35°C° 0.3 mm 2 mps 725 mmHg 49%
    18:00 +34°C° 0.3 mm 2 mps 725 mmHg 55%
    19:00 +33°C° 0.2 mm 3 mps 725 mmHg 61%
    20:00 +30°C° 0.2 mm 3 mps 726 mmHg 66%
    21:00 +29°C° 0.2 mm 4 mps 726 mmHg 72%
    22:00 +29°C° 0.2 mm 4 mps 726 mmHg 74%
    23:00 +28°C° 0.2 mm 3 mps 726 mmHg 77%

    2 May, Tuesday

    Time Temperature Precipitation Wind Pressure Humidity
    00:00 +28°C° 0.2 mm 3 mps 726 mmHg 79%
    01:00 +27°C° 0 mm 3 mps 726 mmHg 81%
    02:00 +27°C° 0 mm 3 mps 726 mmHg 82%
    03:00 +26°C° 0 mm 3 mps 726 mmHg 84%
    04:00 +26°C° 0 mm 3 mps 726 mmHg 85%
    05:00 +26°C° 0 mm 3 mps 726 mmHg 86%
    06:00 +26°C° 0 mm 3 mps 727 mmHg 87%
    07:00 +27°C° 0 mm 3 mps 727 mmHg 78%
    08:00 +29°C° 0 mm 4 mps 727 mmHg 69%
    09:00 +32°C° 0 mm 4 mps 727 mmHg 61%
    10:00 +33°C° 0 mm 4 mps 727 mmHg 55%
    11:00 +35°C° 0 mm 3 mps 726 mmHg 50%
    12:00 +36°C° 0 mm 3 mps 726 mmHg 45%
    13:00 +37°C° 0 mm 3 mps 725 mmHg 42%
    14:00 +38°C° 0 mm 2 mps 724 mmHg 40%
    15:00 +38°C° 0 mm 2 mps 724 mmHg 37%
    16:00 +37°C° 0.1 mm 2 mps 724 mmHg 43%
    17:00 +34°C° 0.1 mm 1 mps 724 mmHg 49%
    18:00 +32°C° 0.1 mm 1 mps 724 mmHg 55%
    19:00 +31°C° 0.5 mm 1 mps 725 mmHg 59%
    20:00 +30°C° 0.5 mm 2 mps 725 mmHg 63%
    21:00 +29°C° 0.5 mm 2 mps 725 mmHg 68%
    22:00 +29°C° 0.4 mm 2 mps 725 mmHg 72%
    23:00 +28°C° 0.4 mm 2 mps 725 mmHg 77%
    Show more